W3EJE-13 Weather Reports


Display with metric or nautical units.
time (UTC)temp
F
wind
direction
speed
MPH
gust
MPH
rain 1hr
in
rain 24hr
in
rain mn
in
humidity
%
barometer
mb
20260904131631 68 230 0.0 0.0 0.00 0.01 0.01 99 1019.7
20260904131128 68 245 0.0 0.0 0.00 0.01 0.01 99 1019.2
20260904130627 68 246 0.0 0.0 0.00 0.01 0.01 99 1019.6
20260904130122 68 249 0.0 0.0 0.00 0.01 0.01 99 1019.6
20260904125618 68 241 0.0 0.0 0.00 0.01 0.01 99 1019.7
20260904125113 67 243 0.0 0.0 0.00 0.01 0.01 99 1019.8
20260904124608 67 239 0.0 0.0 0.00 0.01 0.01 99 1019.7
20260904124104 67 243 0.0 0.0 0.00 0.01 0.01 99 1019.6
20260904123604 67 245 0.0 0.0 0.00 0.01 0.01 99 1019.6
20260904123100 67 247 0.0 0.0 0.00 0.01 0.01 99 1019.7
20260904122600 67 249 0.0 0.0 0.00 0.01 0.01 99 1019.5
20260904122055 66 248 0.0 0.0 0.00 0.01 0.01 99 1019.6
20260904121550 66 249 0.0 0.0 0.00 0.01 0.01 99 1019.5
20260904121046 66 247 0.0 0.0 0.00 0.01 0.01 99 1019.5
20260904120542 66 242 0.0 0.0 0.00 0.01 0.01 99 1019.6
20260904120037 66 246 0.0 0.0 0.00 0.01 0.01 99 1019.7
20260904115532 66 245 0.0 0.0 0.00 0.01 0.01 99 1019.5
20260904115027 66 241 0.0 0.0 0.00 0.01 0.01 99 1019.8
20260904114522 65 237 0.0 0.0 0.00 0.01 0.01 99 1019.6
20260904114021 65 236 0.0 0.0 0.00 0.01 0.01 99 1019.6
20260904113516 65 244 0.0 0.0 0.00 0.01 0.01 99 1019.8
20260904113016 65 243 0.0 0.0 0.00 0.01 0.01 99 1019.6
20260904112511 65 246 0.0 0.0 0.00 0.01 0.01 99 1019.5
20260904112007 65 244 0.0 0.0 0.00 0.01 0.01 99 1019.7
20260904111503 65 245 0.0 0.0 0.00 0.01 0.01 99 1019.5
20260904110958 65 245 0.0 0.0 0.00 0.01 0.01 99 1019.5
20260904110457 65 245 0.0 0.0 0.00 0.01 0.01 99 1019.4
20260904105953 65 248 0.0 0.0 0.00 0.01 0.01 99 1019.4
20260904105452 65 247 0.0 0.0 0.00 0.01 0.01 99 1019.4
20260904104948 65 245 0.0 0.0 0.00 0.01 0.01 99 1019.6
20260904104443 65 245 0.0 0.0 0.00 0.01 0.01 99 1019.5
20260904103939 65 247 0.0 0.0 0.00 0.01 0.01 99 1019.5
20260904103434 65 248 0.0 0.0 0.00 0.01 0.01 99 1019.5
20260904102930 65 244 0.0 0.0 0.00 0.01 0.01 99 1019.4
20260904102426 65 241 0.0 0.0 0.00 0.01 0.01 99 1019.2
20260904101921 65 236 0.0 0.0 0.00 0.01 0.01 99 1019.6
20260904101417 65 241 0.0 0.0 0.00 0.01 0.01 99 1019.5
20260904100914 65 244 0.0 0.0 0.00 0.01 0.01 99 1019.4
20260904100409 65 221 0.0 0.0 0.00 0.01 0.01 99 1019.0
20260904095909 65 241 0.0 0.0 0.00 0.01 0.01 99 1019.1
20260904095403 65 233 0.0 0.0 0.00 0.01 0.01 99 1019.6
20260904094858 65 245 0.0 0.0 0.00 0.01 0.01 99 1019.4
20260904094354 65 244 0.0 0.0 0.00 0.01 0.01 99 1019.0
20260904093850 65 222 0.0 0.0 0.00 0.01 0.01 99 1019.1
20260904093349 65 227 0.0 0.0 0.00 0.01 0.01 99 1019.1
20260904092845 65 247 0.0 0.0 0.00 0.01 0.01 99 1019.1
20260904092342 65 266 0.0 0.0 0.00 0.01 0.01 99 1019.2
20260904091837 65 246 0.0 0.0 0.00 0.01 0.01 99 1019.1
20260904091333 65 244 0.0 0.0 0.00 0.01 0.01 99 1018.9
20260904090827 65 232 0.0 0.0 0.00 0.01 0.01 99 1019.0
20260904090324 65 234 0.0 0.0 0.00 0.01 0.01 99 1019.0
20260904085819 65 256 0.0 0.0 0.00 0.01 0.01 99 1019.2
20260904085314 65 233 0.0 0.0 0.00 0.01 0.01 99 1019.1
20260904084808 65 250 0.0 0.0 0.00 0.01 0.01 99 1018.8
20260904084304 65 254 0.0 0.0 0.07 0.01 0.01 99 1018.6
20260904083800 65 234 0.0 0.0 0.07 0.01 0.01 99 1018.6
20260904083257 65 259 0.0 0.0 0.00 0.00 0.00 99 1018.7
20260904082757 65 228 0.0 0.0 0.00 0.00 0.00 99 1018.3
20260904082252 65 240 0.0 0.0 0.00 0.00 0.00 99 1018.3
20260904081747 65 245 0.0 0.0 0.00 0.00 0.00 99 1018.3
20260904081243 65 287 0.0 0.0 0.00 0.00 0.00 99 1018.8
20260904080738 65 133 0.0 0.0 0.00 0.00 0.00 99 1019.0
20260904080234 65 242 1.0 2.0 0.00 0.00 0.00 99 1018.9
20260904075730 64 252 0.0 0.0 0.00 0.00 0.00 99 1019.1
20260904075225 64 197 0.0 0.0 0.00 0.00 0.00 99 1018.8
20260904074724 64 223 0.0 0.0 0.00 0.00 0.00 99 1018.7
20260904074218 64 256 4.0 5.0 0.00 0.00 0.00 99 1019.1
20260904073714 64 277 0.0 0.0 0.00 0.00 0.00 99 1018.8
20260904073210 64 264 0.0 0.0 0.00 0.00 0.00 99 1018.2
20260904072706 64 281 0.0 0.0 0.00 0.00 0.00 99 1018.1
20260904072200 64 262 0.0 0.0 0.00 0.00 0.00 99 1018.3
20260904071656 64 259 0.0 0.0 0.00 0.00 0.00 99 1018.4
20260904071151 64 263 0.0 0.0 0.00 0.00 0.00 99 1018.4
20260904070650 64 262 0.0 0.0 0.00 0.00 0.00 99 1018.4
20260904070149 64 265 0.0 0.0 0.00 0.00 0.00 99 1018.2
20260904065644 64 266 0.0 0.0 0.00 0.00 0.00 99 1018.2
20260904065142 64 263 0.0 0.0 0.00 0.00 0.00 99 1018.4
20260904064636 64 263 0.0 0.0 0.00 0.00 0.00 99 1018.3
20260904064137 64 263 0.0 0.0 0.00 0.00 0.00 99 1018.4
20260904063633 64 261 0.0 0.0 0.00 0.00 0.00 99 1018.3
20260904063128 64 261 0.0 0.0 0.00 0.00 0.00 99 1018.2
20260904062624 64 266 0.0 0.0 0.00 0.00 0.00 99 1018.5
20260904062119 64 266 0.0 0.0 0.00 0.00 0.00 99 1018.3
20260904061615 65 264 0.0 0.0 0.00 0.00 0.00 99 1018.3
20260904061111 65 264 0.0 0.0 0.00 0.00 0.00 99 1018.2
20260904060608 65 258 0.0 0.0 0.00 0.00 0.00 99 1018.5
20260904060103 65 266 0.0 0.0 0.00 0.00 0.00 99 1018.6
20260904055558 65 272 0.0 0.0 0.00 0.00 0.00 99 1018.5
20260904055053 65 262 0.0 0.0 0.00 0.00 0.00 99 1018.4
20260904054549 65 265 0.0 0.0 0.00 0.00 0.00 99 1018.3
20260904054045 65 275 0.0 0.0 0.00 0.00 0.00 99 1018.6
20260904053544 65 265 0.0 0.0 0.00 0.00 0.00 99 1018.4
20260904053040 65 262 0.0 0.0 0.00 0.00 0.00 99 1018.7
20260904052536 65 265 0.0 0.0 0.00 0.00 0.00 99 1019.1
20260904052032 65 265 0.0 0.0 0.00 0.00 0.00 99 1019.0
20260904051528 65 273 0.0 0.0 0.00 0.00 0.00 99 1019.4
20260904051027 65 269 0.0 0.0 0.00 0.00 0.00 99 1019.4
20260904050523 64 262 0.0 0.0 0.00 0.00 0.00 99 1019.4
20260904050019 65 264 0.0 0.0 0.00 0.00 0.00 99 1019.6
20260904045514 65 268 0.0 0.0 0.00 0.00 0.00 99 1019.6
20260904045009 65 267 0.0 0.0 0.00 0.00 0.00 99 1019.6
20260904044504 65 264 0.0 0.0 0.00 0.00 0.00 99 1019.8
20260904044001 65 263 0.0 0.0 0.00 0.00 0.00 99 1019.9
20260904043457 65 263 0.0 0.0 0.00 0.00 0.00 99 1019.9
20260904042952 65 262 0.0 0.0 0.00 0.00 0.00 99 1019.8
20260904042449 65 261 0.0 0.0 0.00 0.00 0.00 99 1020.0
20260904041943 65 265 0.0 0.0 0.00 0.00 0.00 99 1020.0
20260904041440 65 265 0.0 0.0 0.00 0.00 0.00 99 1020.2
20260904040936 65 266 0.0 0.0 0.00 0.00 0.00 99 1020.1
20260904040435 65 266 0.0 0.0 0.00 0.00 0.00 99 1020.2
20260904035932 65 265 0.0 0.0 0.00 1.36 1.36 99 1020.3
20260904035427 65 259 0.0 0.0 0.00 1.36 1.36 99 1020.6
20260904034926 65 262 0.0 0.0 0.00 1.36 1.36 99 1020.6
20260904034422 65 259 0.0 0.0 0.00 1.36 1.36 99 1020.7
20260904033917 65 254 0.0 0.0 0.00 1.36 1.36 99 1020.4
20260904033414 65 262 0.0 0.0 0.00 1.36 1.36 99 1020.5
20260904032910 65 281 0.0 0.0 0.00 1.36 1.36 99 1020.9
20260904032404 65 265 0.0 0.0 0.00 1.36 1.36 99 1020.7
20260904031858 65 261 0.0 0.0 0.00 1.36 1.36 99 1020.1
20260904031354 65 248 0.0 0.0 0.00 1.36 1.36 99 1020.4
20260904030850 65 253 0.0 0.0 0.00 1.36 1.36 99 1020.8
20260904030345 65 261 0.0 0.0 0.00 1.36 1.36 99 1020.8
20260904025841 65 256 0.0 0.0 0.00 1.36 1.36 99 1020.6
20260904025337 65 247 0.0 0.0 0.00 1.36 1.36 99 1020.7
20260904024836 65 249 0.0 0.0 0.00 1.36 1.36 99 1020.9
20260904024331 65 228 0.0 0.0 0.00 1.36 1.36 99 1020.8
20260904023828 65 257 0.0 0.0 0.00 1.36 1.36 99 1020.6
20260904023324 65 263 0.0 0.0 0.05 1.36 1.36 99 1021.0
20260904022822 65 271 0.0 0.0 0.05 1.36 1.36 99 1020.9
20260904022320 65 253 0.0 0.0 0.07 1.35 1.35 99 1021.2
20260904021816 65 255 0.0 0.0 0.07 1.35 1.35 99 1021.4
20260904021316 65 246 0.0 0.0 0.35 1.34 1.34 99 1022.1
20260904020811 65 262 0.0 0.0 1.75 1.34 1.34 99 1022.4
20260904020307 65 154 0.0 0.0 1.39 1.28 1.28 99 1022.1
20260904015805 65 260 0.0 0.0 0.00 1.05 1.05 99 1023.3
20260904015300 65 266 0.0 0.0 0.17 1.05 1.05 99 1022.3
20260904014759 65 186 0.0 0.0 0.54 1.05 1.05 99 1022.0
20260904014254 65 250 0.0 0.0 0.78 1.02 1.02 99 1022.0
20260904013750 65 239 0.0 0.0 0.71 0.96 0.96 99 1021.7
20260904013246 65 228 0.0 0.0 0.78 0.89 0.89 99 1021.8
20260904012742 65 250 0.0 0.0 1.09 0.84 0.84 99 1021.9
20260904012241 66 200 0.0 0.0 1.51 0.76 0.76 99 1022.7
20260904011740 66 328 0.0 1.0 1.79 0.66 0.66 99 1023.1
20260904011236 67 344 0.0 0.0 1.13 0.51 0.51 99 1023.1
20260904010731 68 20 8.0 10.0 0.24 0.36 0.36 99 1022.5
20260904010228 67 252 0.0 0.0 0.00 0.32 0.32 98 1021.3
20260904005727 68 279 0.0 0.0 0.00 0.32 0.32 98 1020.6
20260904005224 68 267 2.0 5.0 0.00 0.32 0.32 97 1020.1
20260904004718 69 255 0.0 0.0 0.00 0.32 0.32 96 1019.8
20260904004214 69 239 0.0 0.0 0.00 0.32 0.32 95 1019.8
20260904003708 69 260 0.0 0.0 0.00 0.32 0.32 95 1020.1
20260904003205 69 246 0.0 0.0 0.00 0.32 0.32 94 1020.2
20260904002701 69 201 0.0 0.0 0.00 0.32 0.32 94 1020.5
20260904002156 70 225 0.0 0.0 0.00 0.32 0.32 92 1020.6
20260904001651 70 213 0.0 0.0 0.00 0.32 0.32 92 1020.6
20260904001150 70 254 0.0 1.0 0.00 0.32 0.32 90 1020.6
20260904000645 71 306 2.0 3.0 0.00 0.32 0.32 87 1020.6
20260904000140 72 3 1.0 2.0 0.00 0.32 0.32 87 1021.2
20260903235640 73 349 8.0 14.0 0.00 0.32 0.32 87 1020.9
20260903235136 78 320 8.0 15.0 0.00 0.32 0.32 96 1020.8
20260903234631 79 259 0.0 0.0 0.00 0.32 0.32 94 1019.4
20260903234127 79 256 0.0 0.0 0.00 0.32 0.32 92 1019.4
20260903233623 79 258 0.0 0.0 0.00 0.32 0.32 92 1019.7
20260903233118 79 259 0.0 0.0 0.00 0.32 0.32 91 1019.8
20260903232613 79 258 0.0 0.0 0.00 0.32 0.32 90 1019.8
20260903232108 79 253 0.0 1.0 0.00 0.32 0.32 91 1020.0
20260903231602 79 259 0.0 0.0 0.00 0.32 0.32 92 1020.3
20260903231057 79 258 1.0 1.0 0.00 0.32 0.32 92 1020.4
20260903230553 80 269 2.0 2.0 0.00 0.32 0.32 90 1020.0
20260903230051 80 345 2.0 2.0 0.00 0.32 0.32 91 1020.2
20260903225549 80 264 0.0 1.0 0.00 0.32 0.32 91 1020.0
20260903225045 80 263 1.0 1.0 0.00 0.32 0.32 91 1019.8
20260903224541 80 275 2.0 2.0 0.00 0.32 0.32 89 1019.5
20260903224037 80 248 0.0 0.0 0.00 0.32 0.32 88 1018.7
20260903223537 80 269 2.0 2.0 0.00 0.32 0.32 90 1018.7
20260903223036 80 256 0.0 1.0 0.00 0.32 0.32 91 1018.7
20260903222531 82 262 1.0 1.0 0.00 0.32 0.32 87 1018.3
20260903222030 82 261 0.0 0.0 0.00 0.32 0.32 85 1018.3
20260903221525 82 261 0.0 0.0 0.00 0.32 0.32 85 1018.5
20260903221023 82 269 0.0 0.0 0.00 0.32 0.32 85 1018.4
20260903220522 82 260 1.0 1.0 0.00 0.32 0.32 85 1018.6
20260903220016 83 266 2.0 2.0 0.00 0.32 0.32 82 1018.7
20260903215510 83 258 3.0 3.0 0.00 0.32 0.32 82 1018.7
20260903215009 83 265 2.0 2.0 0.00 0.32 0.32 82 1018.7
20260903214504 84 258 4.0 6.0 0.00 0.32 0.32 81 1018.6
20260903214004 84 299 4.0 5.0 0.00 0.32 0.32 81 1018.4
20260903213500 85 267 3.0 3.0 0.00 0.32 0.32 78 1017.8
20260903212955 86 335 6.0 7.0 0.00 0.32 0.32 78 1017.7
20260903212451 86 270 2.0 3.0 0.00 0.32 0.32 75 1018.2
20260903211951 85 263 5.0 7.0 0.00 0.32 0.32 77 1018.4
20260903211446 85 270 3.0 3.0 0.00 0.32 0.32 77 1018.4
20260903210943 86 269 2.0 2.0 0.00 0.32 0.32 76 1018.3
20260903210442 87 267 5.0 8.0 0.00 0.32 0.32 77 1018.6
20260903205937 86 268 2.0 2.0 0.00 0.32 0.32 74 1018.5
20260903205432 87 259 2.0 3.0 0.00 0.32 0.32 74 1018.5
20260903204926 86 270 7.0 7.0 0.00 0.32 0.32 75 1018.5
20260903204423 86 275 3.0 3.0 0.00 0.32 0.32 74 1018.5
20260903203918 87 321 7.0 8.0 0.00 0.32 0.32 75 1018.5
20260903203414 87 253 3.0 3.0 0.00 0.32 0.32 74 1018.5
20260903202913 87 274 3.0 3.0 0.00 0.32 0.32 74 1018.5
20260903202410 86 314 3.0 3.0 0.00 0.32 0.32 74 1018.5
20260903201909 86 280 4.0 6.0 0.00 0.32 0.32 74 1018.7
20260903201405 86 349 5.0 6.0 0.00 0.32 0.32 74 1018.8
20260903200903 86 347 5.0 6.0 0.00 0.32 0.32 73 1018.6
20260903200358 86 359 6.0 7.0 0.00 0.32 0.32 75 1018.9
20260903195854 86 356 7.0 13.0 0.00 0.32 0.32 74 1019.0
20260903195350 87 298 2.0 2.0 0.00 0.32 0.32 73 1018.9
20260903194844 87 275 4.0 5.0 0.00 0.32 0.32 72 1018.9
20260903194340 86 260 1.0 2.0 0.00 0.32 0.32 73 1018.9
20260903193835 86 17 6.0 8.0 0.00 0.32 0.32 75 1019.1
20260903193332 87 315 5.0 6.0 0.00 0.32 0.32 75 1018.8
20260903192826 87 255 2.0 3.0 0.00 0.32 0.32 73 1019.0
20260903192323 86 337 5.0 6.0 0.00 0.32 0.32 74 1019.2
20260903191819 86 270 3.0 3.0 0.00 0.32 0.32 77 1019.2
20260903191314 86 275 1.0 2.0 0.00 0.32 0.32 77 1019.5
20260903190814 86 264 1.0 2.0 0.00 0.32 0.32 78 1019.5
20260903190308 85 254 4.0 6.0 0.00 0.32 0.32 80 1019.7
20260903185803 85 281 5.0 6.0 0.00 0.32 0.32 78 1019.6
20260903185306 85 348 4.0 5.0 0.00 0.32 0.32 78 1019.8
20260903184759 85 284 3.0 3.0 0.00 0.32 0.32 77 1019.9
20260903184255 84 244 1.0 2.0 0.00 0.32 0.32 80 1020.0
20260903183750 85 279 4.0 5.0 0.00 0.32 0.32 79 1020.1
20260903183244 83 288 3.0 5.0 0.00 0.32 0.32 79 1020.1
20260903182743 83 293 5.0 6.0 0.00 0.32 0.32 78 1020.3
20260903182238 83 268 2.0 2.0 0.00 0.32 0.32 79 1020.2
20260903181738 83 258 3.0 3.0 0.00 0.32 0.32 79 1020.5
20260903181232 83 261 3.0 3.0 0.00 0.32 0.32 76 1020.6
20260903180728 82 289 2.0 2.0 0.00 0.32 0.32 76 1020.6
20260903180226 82 264 0.0 0.0 0.00 0.32 0.32 78 1020.5
20260903175721 82 261 0.0 1.0 0.00 0.32 0.32 81 1020.7
20260903175215 82 28 2.0 2.0 0.00 0.32 0.32 80 1020.7
20260903174714 81 238 0.0 0.0 0.00 0.32 0.32 84 1020.6
20260903174210 80 267 3.0 3.0 0.00 0.32 0.32 86 1020.7
20260903173710 80 263 2.0 3.0 0.00 0.32 0.32 84 1021.0
20260903173206 80 284 4.0 5.0 0.00 0.32 0.32 86 1020.7
20260903172700 79 258 0.0 0.0 0.00 0.32 0.32 87 1020.9
20260903172156 79 269 0.0 0.0 0.00 0.32 0.32 86 1021.0
20260903171650 79 273 3.0 5.0 0.00 0.32 0.32 88 1020.9
20260903171147 77 255 0.0 1.0 0.00 0.32 0.32 89 1020.9
20260903170645 77 257 0.0 0.0 0.00 0.32 0.32 89 1021.2
20260903170141 77 258 1.0 1.0 0.00 0.32 0.32 91 1021.5
20260903165638 76 268 0.0 0.0 0.00 0.32 0.32 90 1021.5
20260903165134 75 307 0.0 0.0 0.00 0.32 0.32 91 1021.5
20260903164628 75 276 0.0 0.0 0.00 0.32 0.32 96 1021.6
20260903164124 73 259 0.0 0.0 0.00 0.32 0.32 99 1021.9
20260903163618 73 255 0.0 0.0 0.00 0.32 0.32 99 1021.9
20260903163115 72 261 0.0 0.0 0.00 0.32 0.32 99 1022.0
20260903162611 71 246 0.0 0.0 0.00 0.32 0.32 99 1022.1
20260903162107 71 272 0.0 0.0 0.00 0.32 0.32 99 1022.2
20260903161602 71 210 0.0 0.0 0.00 0.32 0.32 99 1022.0
20260903161057 71 291 0.0 0.0 0.00 0.32 0.32 99 1022.2
20260903160556 70 230 0.0 0.0 0.00 0.32 0.32 99 1022.4
20260903160051 70 257 0.0 0.0 0.07 0.32 0.32 99 1022.7
20260903155550 69 258 0.0 0.0 0.07 0.32 0.32 99 1022.5
20260903155045 69 248 0.0 0.0 0.00 0.31 0.31 99 1022.5
20260903154542 69 258 0.0 0.0 0.00 0.31 0.31 99 1022.5
20260903154038 68 257 0.0 0.0 0.00 0.31 0.31 99 1022.7
20260903153532 68 244 0.0 0.0 0.00 0.31 0.31 99 1022.2
20260903153028 69 245 0.0 0.0 0.00 0.31 0.31 99 1022.6
20260903152524 68 236 0.0 0.0 0.00 0.31 0.31 99 1022.6
20260903152021 68 240 0.0 0.0 0.00 0.31 0.31 99 1022.6
20260903151519 68 249 0.0 0.0 0.00 0.31 0.31 99 1022.7
20260903151015 67 247 0.0 0.0 0.05 0.31 0.31 99 1023.4
20260903150509 68 247 0.0 0.0 0.05 0.31 0.31 99 1023.4
20260903150004 67 241 0.0 0.0 0.00 0.30 0.30 99 1023.1
20260903145459 68 232 0.0 0.0 0.24 0.30 0.30 99 1023.3
20260903144954 68 259 0.0 0.0 0.24 0.30 0.30 99 1023.0
20260903144453 67 235 0.0 0.0 0.07 0.26 0.26 99 1023.3
20260903143949 67 253 0.0 0.0 0.07 0.26 0.26 99 1023.5
20260903143445 67 246 0.0 0.0 0.05 0.25 0.25 99 1023.0
20260903142941 67 248 0.0 0.0 0.24 0.25 0.25 99 1023.0
20260903142436 67 245 0.0 0.0 0.26 0.24 0.24 99 1023.1
20260903141932 67 245 0.0 0.0 0.19 0.21 0.21 99 1023.1
20260903141428 67 249 0.0 0.0 0.17 0.20 0.20 99 1023.2
20260903140923 67 245 0.0 0.0 0.05 0.18 0.18 99 1022.8
20260903140419 68 226 0.0 0.0 0.00 0.17 0.17 99 1022.3
20260903135914 68 245 0.0 0.0 0.00 0.17 0.17 99 1022.4
20260903135410 68 242 0.0 0.0 0.00 0.17 0.17 99 1022.3
20260903134909 67 241 0.0 0.0 0.00 0.17 0.17 99 1022.4
20260903134403 67 242 0.0 0.0 0.19 0.17 0.17 99 1022.4
20260903133901 67 247 0.0 0.0 0.19 0.17 0.17 99 1022.5
20260903133357 67 161 0.0 0.0 0.05 0.14 0.14 99 1022.8
20260903132857 68 238 0.0 0.0 0.00 0.13 0.13 99 1023.4
20260903132353 69 243 0.0 0.0 0.00 0.13 0.13 99 1023.3